To NAV CANADA Home Page Login to a new session Search on AWWS site Feedback and Comments Disclaimer Vers la page française équivalente Tips FAQ What's new on the site To the Forecasts and Observations / NOTAM section To "File a Flight Plan" website Publications and other links Update of the User's profile FIC Telephone Numbers My Weather Data Folder Route Weather Data Regional Weather Data Local Weather Data To the Forecasts and Observations / NOTAM section
Request Generated 08/22/2017 at 03:28:10 UTC . Weather information available at that time is displayed.

METAR/TAF

OLD CROW/YT    

LWIS CYOC 220300Z AUTO 13006KT 070V150 18/06 A2978=
LWIS CYOC 220200Z AUTO 09003KT 060V150 18/08 A2978=
METAR CYOC 220100Z 14003KT 35SM FEW024 SCT038 BKN055 BKN099 BKN230
18/06 A2979 RMK CU2SC1SC3AC1CI1 AC TR CI TR CLIMAT
19.3/8.7/0.0MM/LAST STFD OBS/NXT 221300Z/SH-SW SLP098 DENSITY ALT 1600FT=

*** REMARK        : Forecast period has ended; this was the last TAF issued
*** REMARQUE : La période de prévision est échue; ceci était le dernier TAF qui a été émis
TAF CYOC 211738Z 2118/2201 05005KT P6SM SCT050 BKN220
RMK NXT FCST WILL BE ISSUED AT 221445Z=
Your time UTC time
Weather data provided by Environment Canada and NAV CANADA